Regional Weather Roundup
Issued by NWS Jackson, KY

Home | Current Version | Previous Version | Text Only | Print | Product List | Glossary Off
Versions: 1 2 3 4 5 6 7 8 9 10 11 12 13 14 15 16 17 18 19 20 21 22 23 24 25 26 27 28 29 30 31 32 33 34 35 36 37 38 39 40 41 42 43 44 45 46 47 48 49 50

000
ASUS43 KJKL 280511
RWRJKL

EAST KENTUCKY HOURLY WEATHER ROUNDUP
NATIONAL WEATHER SERVICE JACKSON KY
100 AM EDT THU AUG 28 2014

NOTE: "FAIR" INDICATES FEW OR NO CLOUDS BELOW 12,000 FEET WITH
NO SIGNIFICANT WEATHER AND/OR OBSTRUCTIONS TO VISIBILITY.

* THESE REPORTS ARE NOT UNDER NWS QUALITY CONTROL AND MAY NOT
  REPORT WEATHER SUCH AS PRECIPITATION AND FOG.

KYZ079-080-083-085-087-088-110-112-115-119-120-280600
...EASTERN KENTUCKY...

CITY           SKY/WX    TMP DP  RH WIND       PRES   REMARKS
JACKSON        PTCLDY    73  68  84 CALM      30.08F
LONDON         PTCLDY    72  69  90 CALM      30.09S
SOMERSET*      PTCLDY    70  70 100 CALM      30.08S FOG
MONTICELLO*    CLEAR     70  69  96 CALM      30.09S FOG
MIDDLESBORO*   CLEAR     67  65  94 CALM      30.10S
HARLAN APT*    CLEAR     66  66 100 MISG      30.11F
BLACK MTN*       N/A     64  64 100 N6          N/A
PIKEVILLE APT* CLEAR     72  68  88 SE3       30.08F
BIG SANDY*     MOCLDY    73  70  91 CALM      30.07S
MOREHEAD APT*  CLOUDY    73  68  83 NW5       30.09S
$$

KYZ035-036-041-042-044-050-067-078-099-280600
...CENTRAL KENTUCKY...

CITY           SKY/WX    TMP DP  RH WIND       PRES   REMARKS
MT STERLING*   MOCLDY    72  68  88 CALM      30.08S
FLEMING/MASON* CLEAR     72  70  94 N3        30.07F FOG
DANVILLE*      CLEAR     70  70 100 CALM      30.08S FOG
RICHMOND*      CLEAR     72  66  83 CALM      30.07S
LEXINGTON      PTCLDY    71  68  90 CALM      30.07S
FRANKFORT      MOCLDY    70  69  97 CALM      30.06S FOG
$$

KYZ091>093-OHZ055-061-077-WVZ005-015-034-035-042-280600
...SOUTHERN OHIO/WEST VIRGINIA...

CITY           SKY/WX    TMP DP  RH WIND       PRES   REMARKS
COVINGTON      PTCLDY    76  69  79 N6        30.07F
COLUMBUS       CLEAR     70  61  73 NE5       30.08R
DAYTON         CLEAR     70  66  87 NE7       30.10R
WILMINGTON     CLEAR     68  66  93 NE5       30.08S FOG
HUNTINGTON     FOG       73  72  96 E5        30.04F VSB 1
CHARLESTON     TSTM      71  71 100 CALM      30.05S FOG
PINEVILLE*     PTCLDY    67  67 100 MISG      30.14S FOG
BECKLEY        MOCLDY    69  65  86 SW3       30.12S
BLUEFIELD      CLEAR     68  61  78 W8        30.16S
$$

VAZ002-007-008-TNZ017-027-036-066-071-280600
...SOUTHWEST VIRGINIA/EAST TENNESSEE...

CITY           SKY/WX    TMP DP  RH WIND       PRES   REMARKS
WISE*          CLEAR     66  61  82 SW3       30.17S
JONESVILLE*      N/A     64  64 100 CALM      30.12S
ABINGDON*      CLEAR     65  63  91 CALM      30.12F
BRISTOL        PTCLDY    64  59  83 CALM      30.10S
KNOXVILLE      CLEAR     69  65  86 CALM      30.06S
OAK RIDGE      CLEAR     69  66  90 CALM      30.09S
CROSSVILLE     CLEAR     70  64  81 CALM      30.13S
NASHVILLE      CLEAR     75  71  87 S3        30.05S
$$

...KEY TO REMARKS...
VSB - VISIBILITY IN MILES
WCI - WIND CHILL INDEX
HX  - HEAT INDEX

$$


USA.gov is the U.S. government's official web portal to all federal, state and local government web resources and services.